Location: Albany
(42.6526°N, 73.7562°W)
Time: 22:40:28
(UTC+00:00)

CORIOLIS - Pass Details

Date: 19 November 2019
Orbit: 819 x 838 km, 98.7° (Epoch: 11 December)

Event Time Altitude Azimuth Distance (km) Brightness Sun altitude
Rises 22:23:24 0° 163° (SSE) 3,357 7.3 -10.1°
Reaches altitude 10° 22:25:44 10° 162° (SSE) 2,431 6.6 -10.5°
Maximum altitude 22:31:08 85° 74° (ENE) 843 4.1 -11.5°
Drops below altitude 10° 22:36:36 10° 347° (NNW) 2,458 6.6 -12.4°
Sets 22:38:58 0° 347° (NNW) 3,399 7.3 -12.8°
